Other Public Products
Issued by NWS Grand Forks, ND

Home | Current Version | Previous Version | Graphics & Text | Print | Product List | Glossary On
Versions: 1 2 3 4 5 6 7 8 9 10 11 12 13 14 15 16 17 18 19 20 21 22 23 24 25 26 27 28 29 30 31 32 33 34 35 36 37 38 39 40 41 42 43 44 45 46 47 48 49 50
000
FPUS83 KFGF 022331
OPUFGF
PRAIRIE TO PINES WEATHER ROUNDUP
NATIONAL WEATHER SERVICE EASTERN NORTH DAKOTA/GRAND FORKS ND
600 PM CDT TUE SEP 02 2014

 **SATELLITE DATA USED TO AUGMENT SKY COVER AT AUTOMATED STATIONS**
 *****  WEATHER ACROSS EASTERN NORTH DAKOTA  *****

CITY           SKY/WX    TMP DP  RH WIND       PRES   REMARKS
GRAND FORKS    MOSUNNY   78  53  41 SW12G24   29.67F
GRAND FORKS AF MOSUNNY   77  54  44 W14       29.69S
GRAND CITY NWS   N/A     77 N/A N/A W14         N/A
BUXTON         NOT AVBL
DEVILS LAKE    SUNNY     75  48  38 W16G24    29.69S
FARGO          SUNNY     79  55  43 S22G29    29.72F
WAHPETON ARPT  PTCLDY    73  54  49 SW7       29.78F
$$

 *****  WEATHER ACROSS CENTRAL AND WESTERN NORTH DAKOTA  *****

CITY           SKY/WX    TMP DP  RH WIND       PRES   REMARKS
JAMESTOWN      PTSUNNY   76  53  44 W12       29.75S
BISMARCK       SUNNY     80  48  32 NW10      29.76F
MINOT          MOSUNNY   75  45  34 W10       29.72S
MINOT AFB      SUNNY     75  49  40 NW15      29.72S
GARRISON         N/A     75  47  36 W12       29.74F
WILLISTON      SUNNY     77  41  27 NW9       29.74F
DICKINSON      CLOUDY    70  47  43 W7        29.78F
HETTINGER      CLOUDY    73  45  36 W13       29.82F
$$

 *****  OTHER OBSERVATIONS NORTHEAST NORTH DAKOTA  *****

CITY           SKY/WX    TMP DP  RH WIND       PRES   REMARKS
WALHALLA         N/A     72  54  53 NE8       29.67R
LANGDON        FAIR      73  46  38 W17       29.68S
CAVALIER       FAIR      66  59  77 NE3       29.65F
GRAFTON        FAIR      77  54  44 W14       29.65S
CANDO          FAIR      73  50  43 W13       29.70S
FORT TOTTEN    NOT AVBL
ROLLA          FAIR      70  48  46 W13G20    29.72R
RUGBY          FAIR      72  50  46 W10       29.72R
 ***** THE ABOVE OBSERVATIONS ARE NON NWS ARE NOT QUALITY
        CONTROLLED AND MAY MIS-REPORT RAIN FOR SNOW...
$$

 *****  OTHER OBSERVATIONS SOUTHEAST NORTH DAKOTA *****

CITY           SKY/WX    TMP DP  RH WIND       PRES   REMARKS
COOPERSTOWN    NOT AVBL
VALLEY CITY    FAIR      77  54  44 W14       29.74F
OAKES            N/A     77  55  47 SW10      29.77S
GWINNER        CLEAR     79  55  44 SW13      29.78S
BUFFALO          N/A     78  46  31 SW13        N/A
WYNDMERE       NOT AVBL
 ***** THE ABOVE OBSERVATIONS ARE NON NWS ARE NOT QUALITY
       CONTROLLED AND MAY MIS-REPORT RAIN FOR SNOW...
$$

  *****  WEATHER ACROSS NORTHERN MINNESOTA  *****

CITY           SKY/WX    TMP DP  RH WIND       PRES   REMARKS
FLAG ISLAND    CLOUDY    66  54  63 S5        29.70F
WARROAD        TSTM      57  54  88 W9        29.79R
ROSEAU         TSTM      57  54  88 N5        29.76R
HALLOCK        TSTM      61  57  88 E9        29.67S
THF RVR FALLS  SUNNY     75  55  50 SW10G23   29.69F
HALSTAD          N/A     72  57  60 SW9         N/A
FOSSTON        MOSUNNY   73  55  53 SW10G18   29.74S
BAUDETTE       PTSUNNY   68  55  63 SW5       29.72S
WASKISH        MOSUNNY   70  55  60 CALM      29.74S
CROOKSTON      SUNNY     77  57  50 SW16      29.70S
$$
  *****  WEATHER ACROSS CENTRAL AND WEST MINNESOTA  *****

CITY           SKY/WX    TMP DP  RH WIND       PRES   REMARKS
BEMIDJI        MOSUNNY   72  53  51 SW10G18   29.75S
PARK RAPIDS    SUNNY     74  52  46 SW18G24   29.78F
WADENA         SUNNY     73  55  53 SW12      29.79F
DETROIT LAKES  SUNNY     75  52  43 SW12G17   29.78S
MOORHEAD       SUNNY     75  59  57 SW12G17   29.74F
FERGUS FALLS   SUNNY     75  50  41 SW12      29.78S
ELBOW LAKE     FAIR      71  58  65 SW7       29.81S
MORRIS MN      MOSUNNY   79  55  44 SW9       29.82S
STAPLES        SUNNY     73  52  46 SW9       29.81F
WHEATON        MOSUNNY   73  54  49 S8        29.82S
$$
  *****  WEATHER ELSEWHERE ACROSS MINNESOTA  *****

CITY           SKY/WX    TMP DP  RH WIND       PRES   REMARKS
DULUTH         PTSUNNY   65  51  60 N13G21    29.83R
INTRNTL FALLS  MOSUNNY   70  50  49 SW9       29.74S
ELY            CLOUDY    59  54  82 SW5       29.80F
CLOQUET        MOSUNNY   72  48  43 SW10G18   29.82S
BRAINERD       SUNNY     73  51  46 SW15      29.82S
HIBBING        MOSUNNY   63  55  75 SE3       29.81F
ALEXANDRIA     SUNNY     74  54  49 SW13      29.85F
SAINT CLOUD    SUNNY     78  53  41 SW16      29.85F
MINNEAPOLIS    MOSUNNY   77  49  37 SW10      29.88S
$$

  *****  WEATHER ACROSS SOUTH DAKOTA  *****

CITY           SKY/WX    TMP DP  RH WIND       PRES   REMARKS
SIOUX FALLS    MOSUNNY   74  55  51 SW13G20   29.91F
BROOKINGS      NOT AVBL
WATERTOWN      MOSUNNY   75  52  44 SW15      29.86F
HURON          SUNNY     79  49  34 S12G21    29.84F
SISSETON         N/A     78  54  43 SW12      29.80S
ABERDEEN       MOSUNNY   78  54  43 SW7       29.79F
MITCHELL       SUNNY     78  55  44 S13       29.87F
PIERRE         MOSUNNY   83  47  28 S14G22    29.79F
MOBRIDGE       MOSUNNY   80  53  39 W6        29.75F
RAPID CITY     MOSUNNY   80  48  32 E9        29.84F
$$

  *****  SOME WEATHER IN NEARBY STATES *****

CITY           SKY/WX    TMP DP  RH WIND       PRES   REMARKS
GLASGOW MT     MOSUNNY   74  40  29 W8        29.73F
GREAT FALLS MT SUNNY     76  37  24 S10G16    29.72F
CHEYENNE WY    SUNNY     81  38  21 SW12      30.01F
SCOTTSBLUFF NE SUNNY     88  37  16 VRB3      29.88F
OMAHA NE       MOSUNNY   82  54  37 CALM      29.93F
DES MOINES IA  MOSUNNY   79  59  50 W8        29.92F
DAVENPORT IA   SUNNY     77  61  57 W9        29.92F
CHICAGO IL     MOSUNNY   78  54  43 W12       29.89F
EAU CLAIRE WI  MOSUNNY   75  53  46 W9        29.88S
LA CROSSE WI   SUNNY     80  59  48 W7        29.88F
$$

  *****  SOME NATIONAL WEATHER *****

CITY           SKY/WX    TMP DP  RH WIND       PRES   REMARKS
LA GUARDIA NY  PTCLDY    90  65  43 SW12      29.79S HX  92
RALEIGH NC     PTCLDY    81  69  67 SW10      29.98R
ATLANTA GA     PTSUNNY   85  69  58 CALM      30.00F
NEW ORLEANS LA PTSUNNY   89  73  59 S9        29.99S HX  97
OKLAHOMA CITY  MOSUNNY   91  69  48 SE21G26   29.88F HX  96
ALBUQUERQUE NM MOSUNNY   92  32  12 W7        30.04F
SALT LAKE CITY MOSUNNY   88  41  19 NW10      29.88F
LOS ANGELES CA MOSUNNY   76  64  66 W14       29.79F
BOISE ID       SUNNY     87  33  14 CALM      29.76F
SEATTLE WA     PTSUNNY   64  53  67 SW13      29.85F
$$

*** WEATHER ACROSS MANITOBA...SASKATCHEWAN AND ONTARIO ***
                ***ONTARIO***

CITY           SKY/WX    TMP DP  RH WIND       PRES   REMARKS
GERALDTON      MOSUNNY   66  48  52 W7        29.71S
THUNDER BAY    MOSUNNY   73  52  46 W6        29.73S
SIOUX LOOKOUT  PTSUNNY   68  48  49 W7        29.71R
TORONTO        MOCLDY    72  66  83 NW8       29.82S
BIG TROUT LK     N/A     63  54  72 MISG      29.58S
PICKLE LAKE    PTSUNNY   68  48  49 W7        29.65S
DRYDEN         SUNNY     68  46  45 SW10      29.72R
KENORA         CLOUDY    66  50  55 SW12G18   29.73R
$$
                *** MANITOBA***

CITY           SKY/WX    TMP DP  RH WIND       PRES   REMARKS
BRANDON        MOSUNNY   72  50  46 NW13G18   29.70R
DAUPHIN        SUNNY     68  52  56 W12G18    29.67S
ISLAND LAKE    LGT RAIN  57  54  88 S6        29.59S
PILOT MOUND      N/A     73  48  40 W8          N/A
THE PAS        MOSUNNY   64  48  55 W12       29.62R
THOMPSON       PTSUNNY   57  52  82 NW8       29.55R
WINNIPEG       MOSUNNY   68  54  60 SE6       29.68F
LYNN LAKE      PTSUNNY   54  48  82 MISG      29.62R
CHURCHILL      LGT RAIN  52  48  87 E18       29.56R
GILLAM         MOSUNNY   63  54  72 W6        29.50
$$
                ***SASKATCHEWAN***

CITY           SKY/WX    TMP DP  RH WIND       PRES   REMARKS
ESTEVAN        PTSUNNY   70  46  43 NW7       29.74S
KINDERSLEY     CLOUDY    59  50  72 NE8       29.72
LLOYDMINSTER   MOSUNNY   61  45  55 W10       29.70F
PRINCE ALBERT  MOSUNNY   64  46  52 N8        29.68F
REGINA         MOSUNNY   68  46  45 NW13      29.73
YORKTON        MOSUNNY   64  48  55 W9        29.70S



USA.gov is the U.S. government's official web portal to all federal, state and local government web resources and services.